Tracking 18840 objects as of 18-November-2017
HD Live streaming from Space Station
objects crossing your sky now

SL-12 DEB

Track SL-12 DEB now!
10-day predictions


NORAD ID: 41702
Int'l Code: 2010-007U
Perigee: 673.2 km
Apogee: 16,131.0 km
Inclination: 65.5 °
Period: 297.8 minutes
Semi major axis: 14773 km
RCS: Unknown
Launch date: March 1, 2010
Source: Commonwealth of Independent States (former USSR) (CIS)
Launch site: TYURATAM MISSILE AND SPACE COMPLEX (TTMTR)

Note: This is SATELLITE DEBRIS
aabbcc
Your satellite tracking list
Your tracking list is empty




NASA's NSSDC Master Catalog

Two Line Element Set (TLE):
1 41702U 10007U   17321.18063872  .00025420  00000-0  15400+0 0  9993
2 41702  65.4607 238.9906 5231721  67.1320 338.8595  4.83497060 47442
Source of the keplerian elements: AFSPC